User: anonymous
Location: Brno
(49.2000°N, 16.6330°E)
Time: 23:17:09
(UTC+02:00)
Language:

Cosmos 332 Rocket - Orbit

View from above orbital plane
View from above orbital plane
View from above satellite
View from above satellite

Ground track
Ground track

The orbit data is extracted from the following two-line orbital elements,

1 04370U 70028B   14245.13313704  .00000438  00000-0  99050-4 0  7258
2 04370 074.0393 232.1487 0014940 045.0707 025.6805 14.59152980863300
Epoch (UTC): 02 September 2014 03:11:43
Eccentricity: 0.0014940
inclination: 74.0393°
perigee height: 685 km
apogee height: 706 km
right ascension of ascending node: 232.1487°
argument of perigee: 45.0707°
revolutions per day: 14.59152980
mean anomaly at epoch: 25.6805°
orbit number at epoch: 86330

The dashed part of the orbit path shows where the satellite is in the earth's shadow,  

DLR